WILDFIRE 4

导读

WILDFIRE 4是一颗由美国发射的卫星,于2023年9月2日由SpaceX公司使用猎鹰9号火箭从加利福尼亚州范登堡空军基地升空,属于本次任务中13枚军用卫星中的一颗,服务于美国太空发展局相关军事部署,旨在增强美国太空领域的军事感知与响应能力,进一步完善其低轨军事卫星网络架构,支撑美国在太空领域的战略布局。

基本信息
目录编号:
57756
目录名称:
WILDFIRE 4
国际标识:
2023-133A
轨道中心:
EARTH
卫星名称:
WILDFIRE 4
卫星全名:
--
卫星状态:
在轨 (已飞行1017 天)
发射日期:
2023-09-02 UTC
国别 :
美国 (US)
星等 :
--
轨道信息
数据来源 国际轨道数据 AOE轨道数据
星历时间 2026-06-15T05:40:54+0800
9小时前
查看轨道信息
2026-06-15T08:00:00+0800
7小时前
查看轨道信息
半长轴 7319.563km 7319.551km
偏心率 0.0010005 0.0008176
轨道倾角 81.002° 81.038°
近地点辐角 6.701° 8.269°
升交点赤经 8.366° 8.290°
平近点角 353.428° 113.685°
近地点 934.102km 935.429km
远地点 948.75km 947.399km
周期 103.869分钟 103.869分钟
每日圈数 13.863569 13.863605
详细信息
使用方式:
暂无
2D轨道图
3D轨道图
轨道高度分析图
轨道倾角分析图
轨道综合分析图
查看轨道综合分析图